ECMWFFLT1_850_spd_132.txt.gz
Wind_Speed
20 19 19 19 18 15 15 14 13 12 12 13 13 12 12 10 9 9 9 10 10 9 9 9 8 8 7 7 8 9 10 10 9 9 8 7 7 7 6 6 7 7 9 10 7 4 2 2 2 5 9 11 9 12 19 17 13 17 20 21 20 20 21
20 20 21 21 18 16 15 15 14 14 14 14 13 11 10 9 9 10 11 11 10 8 7 7 7 6 6 7 8 8 8 8 8 7 7 7 7 9 9 9 9 9 10 9 8 6 3 3 3 5 8 10 11 10 16 17 15 17 16 16 18 18 19
22 22 22 21 19 17 17 16 15 15 15 14 12 11 10 10 10 11 11 10 8 7 6 7 7 7 7 8 7 7 8 8 7 6 6 6 7 8 8 9 8 8 8 8 7 7 4 6 5 4 5 7 10 9 12 15 15 15 12 14 15 15 17
24 23 22 21 19 18 18 17 16 16 15 14 13 12 11 10 11 11 10 8 7 7 7 7 7 8 8 8 8 8 8 8 8 8 8 8 7 7 7 7 6 6 7 7 7 7 6 7 6 4 3 4 5 7 10 13 13 12 11 12 12 12 17
24 23 22 21 20 19 19 19 18 17 16 14 13 11 10 10 11 11 8 7 7 8 8 8 8 9 8 8 8 8 8 9 10 10 9 10 9 8 8 7 6 6 6 6 6 6 7 8 7 5 2 2 2 4 7 11 11 8 10 10 9 12 16
22 21 21 20 20 20 20 19 18 17 16 14 12 10 10 11 11 10 8 8 10 10 10 9 9 8 7 8 8 9 10 10 10 10 9 10 9 9 8 8 8 7 6 6 6 6 7 8 8 7 5 2 4 2 4 8 8 7 10 10 9 13 16
20 20 20 20 20 20 20 19 17 16 16 13 11 10 10 10 11 9 9 11 11 10 10 9 8 8 8 9 10 11 11 11 11 10 10 9 9 8 8 8 8 8 7 7 7 6 6 6 8 7 7 5 3 3 4 5 7 9 11 10 8 12 16
20 20 20 20 21 20 19 20 17 16 15 13 11 10 9 10 12 10 9 11 10 9 9 8 8 8 9 10 11 11 12 12 12 11 10 9 9 9 8 8 8 8 8 8 7 8 7 7 7 7 7 8 5 4 4 3 6 8 10 9 8 12 16
19 21 22 21 21 19 19 20 18 16 15 14 12 10 8 10 12 11 9 10 10 9 9 8 9 10 10 11 12 13 13 13 12 11 10 10 9 9 9 8 8 8 8 8 8 9 9 9 9 8 6 7 7 5 4 4 7 9 10 10 9 12 17
20 22 23 22 21 20 20 20 18 17 16 14 11 8 7 8 8 8 10 11 10 10 9 10 11 12 12 13 14 14 14 13 13 12 11 10 10 9 9 9 9 10 9 9 9 10 11 12 11 11 8 6 7 6 5 5 6 9 10 11 11 14 18
22 22 21 21 21 22 22 20 19 18 16 13 10 7 6 6 6 8 12 12 11 11 11 12 12 13 14 15 15 14 14 13 12 11 11 11 10 9 9 10 10 10 10 10 10 10 12 14 12 12 11 8 7 8 6 5 4 8 11 12 12 15 18
23 21 20 20 22 23 22 21 20 18 15 12 10 7 6 7 9 12 13 13 13 13 13 13 14 15 15 15 15 15 14 13 12 12 12 11 11 10 11 11 11 11 11 11 12 11 11 13 12 11 11 9 8 8 7 5 3 6 10 12 14 15 17
22 21 21 22 23 23 23 23 21 18 15 12 9 7 7 9 12 15 15 14 14 13 14 15 15 16 16 16 16 15 14 13 12 12 12 12 11 10 10 12 13 13 13 11 12 13 11 10 10 10 9 8 8 8 8 7 5 6 8 11 14 15 17
22 23 23 23 24 25 24 22 20 17 14 11 9 9 8 9 13 15 15 15 14 14 14 16 17 17 17 17 17 16 15 14 13 13 13 12 12 12 11 12 12 12 13 12 9 10 9 7 6 7 8 7 7 7 8 8 8 9 10 11 14 15 16
24 25 25 26 27 26 23 20 18 16 14 12 11 9 8 11 15 16 16 15 15 15 16 17 19 19 19 18 18 17 16 15 14 13 13 12 12 12 12 12 11 11 12 11 9 8 9 6 3 4 6 6 7 7 7 9 10 11 12 13 15 15 16
24 26 27 29 29 26 22 19 18 17 15 12 11 8 9 13 16 16 16 16 16 16 17 19 20 20 20 19 19 18 17 15 14 13 13 12 12 12 12 11 11 11 11 10 10 10 10 7 6 7 8 6 6 6 7 10 10 11 12 14 15 16 17
26 28 30 30 27 24 22 20 20 18 14 12 10 9 11 14 16 17 17 16 17 17 19 21 21 21 20 20 19 18 17 15 14 14 13 13 13 12 12 11 11 11 12 11 9 10 10 7 5 7 8 7 6 5 7 9 9 10 12 14 15 15 17
28 29 29 28 26 23 22 21 20 17 13 12 11 11 13 16 17 18 17 17 18 19 21 22 21 21 21 20 19 18 17 16 16 15 15 14 13 12 11 11 11 10 11 11 10 10 11 9 8 7 6 7 6 5 7 8 8 9 11 13 14 15 16
30 30 29 28 26 24 22 21 20 16 13 13 12 12 15 17 18 18 17 17 18 20 21 22 21 21 21 21 19 18 18 18 17 16 15 15 14 13 12 11 11 11 11 11 11 10 11 10 10 8 6 6 6 6 7 8 7 7 8 9 11 14 15
30 31 30 29 28 26 24 22 20 17 15 14 12 13 17 19 19 18 18 18 19 20 22 22 22 23 22 21 20 19 19 18 17 16 15 15 14 13 13 13 12 11 10 10 9 8 8 8 9 8 6 5 5 6 7 8 7 7 7 7 9 13 14
31 32 32 30 29 27 25 22 20 18 16 14 12 14 18 19 19 18 18 19 19 21 22 23 23 23 23 23 21 20 19 18 17 17 16 15 14 13 13 12 10 9 9 9 9 8 7 7 7 6 5 4 5 6 7 8 8 8 8 7 8 12 14
31 32 31 30 29 27 25 24 23 19 15 14 13 15 19 20 19 19 19 19 20 21 23 23 23 24 24 23 22 20 19 18 17 17 17 15 15 14 12 10 9 9 9 9 9 8 8 6 5 5 4 4 5 6 7 8 9 10 10 9 8 11 14
31 31 31 29 29 28 26 26 26 21 16 14 14 17 19 20 20 21 21 21 21 22 23 23 23 23 23 23 22 20 19 18 17 17 16 16 15 14 12 11 11 10 10 10 9 8 8 7 5 4 3 3 4 6 7 8 9 11 12 11 10 11 14
31 31 31 31 30 29 28 27 25 22 18 16 15 18 21 21 21 21 22 22 23 23 24 24 24 24 24 23 22 21 19 18 17 17 16 16 15 13 12 12 12 11 10 10 10 9 8 6 5 4 3 3 4 5 7 9 10 11 12 13 12 12 13
33 32 32 32 31 30 29 28 25 22 19 17 17 20 22 22 21 22 22 23 24 25 26 26 26 26 25 24 23 22 19 18 18 17 15 14 14 13 13 13 12 11 10 10 10 9 8 6 5 3 2 2 3 5 7 8 10 11 12 13 13 13 13
32 32 32 32 32 31 30 28 24 21 19 18 19 22 23 22 22 23 23 23 24 26 27 27 27 27 26 24 23 21 20 20 20 17 15 13 12 12 13 13 12 11 10 10 10 9 7 6 5 4 2 1 3 6 8 10 11 12 12 13 13 13 14
30 31 31 32 32 31 30 28 23 20 18 19 22 24 24 24 24 23 23 24 25 27 27 27 28 27 25 24 23 22 21 21 20 17 15 12 11 12 12 11 11 10 11 10 8 7 5 4 3 2 0 3 5 7 9 10 11 12 12 13 13 14 16
29 28 29 31 32 31 30 27 23 19 18 20 23 25 25 25 24 24 24 25 26 27 27 26 27 26 25 23 23 23 22 21 18 17 16 15 14 12 11 9 8 9 10 9 7 6 4 3 3 2 2 4 6 8 10 12 12 13 13 13 13 15 17
28 28 29 32 32 31 30 28 23 19 19 20 22 24 25 25 25 24 25 26 28 27 26 26 26 26 25 23 23 24 22 21 19 19 19 19 17 16 14 12 10 11 11 9 7 7 5 4 4 3 1 2 3 5 8 11 11 11 11 12 12 13 16
28 28 29 31 31 30 29 27 22 21 22 22 22 23 24 25 25 25 26 29 29 27 25 25 26 26 26 25 25 25 23 21 20 19 19 19 18 16 17 16 14 14 12 9 8 8 6 5 6 4 2 1 2 3 8 10 10 9 11 11 11 13 16
28 29 29 29 30 28 25 23 22 23 24 23 22 22 23 24 25 26 28 31 29 26 25 25 26 27 27 26 27 27 23 19 17 16 17 18 16 14 17 17 16 14 12 10 10 9 7 7 7 6 4 3 4 6 8 9 9 10 12 11 11 14 16
30 29 28 28 30 26 21 21 24 25 23 22 22 22 23 24 25 27 29 30 28 25 24 26 26 26 27 27 27 27 23 17 13 13 14 15 15 14 16 17 17 16 12 9 9 9 8 8 8 7 6 6 6 8 8 8 9 10 10 10 12 14 14
29 27 26 26 27 24 21 23 25 24 22 21 21 22 23 24 24 26 27 26 25 25 25 26 27 26 27 27 27 27 24 18 12 12 13 13 14 15 16 15 16 16 12 9 10 10 9 9 8 7 7 7 7 7 7 8 9 10 10 11 13 13 13
25 24 23 23 22 21 24 27 27 25 24 22 22 24 24 22 22 24 24 21 22 24 25 26 27 26 27 27 26 26 24 21 16 13 12 12 13 15 16 14 15 16 13 11 11 10 9 9 9 8 8 7 7 7 7 8 9 8 9 11 12 12 12
22 23 24 26 26 27 28 30 29 26 25 23 23 25 24 22 22 24 23 21 21 23 25 26 26 26 26 26 27 27 26 23 20 18 15 12 12 13 16 14 13 13 13 12 12 11 10 10 9 8 8 7 6 6 7 8 8 8 10 11 11 12 13
28 28 28 29 31 33 33 32 31 29 27 25 24 25 23 22 22 22 22 22 21 22 25 26 25 25 25 25 27 28 27 24 22 20 19 16 14 13 15 16 13 11 11 12 11 11 11 10 9 8 7 6 6 7 7 7 7 9 11 12 11 11 13
32 31 30 30 32 33 32 30 30 29 26 24 23 23 23 23 23 22 21 21 21 22 25 27 25 24 24 25 27 28 28 26 23 22 21 19 18 17 16 17 16 14 14 13 12 12 11 10 10 8 6 6 6 7 7 6 6 10 12 12 11 11 12

ECMWFFLT1_850_spd_135.txt.gz
Wind_Speed
25 23 22 20 19 19 19 19 19 19 18 17 16 16 16 15 15 14 14 14 14 14 12 11 10 11 12 12 12 15 16 16 15 14 14 15 17 17 16 15 14 11 10 9 7 5 6 7 6 4 6 7 7 11 15 15 16 18 21 20 18 19 19
24 23 22 21 20 20 20 20 21 20 19 18 18 17 16 16 15 14 14 14 13 13 10 9 10 11 11 11 12 14 16 18 16 12 12 13 15 15 15 14 14 13 11 10 9 6 6 7 8 6 5 6 7 9 12 14 16 16 18 17 14 15 17
26 24 23 23 22 21 21 21 21 21 20 18 17 17 17 16 15 15 14 12 12 11 8 8 11 12 12 12 13 13 14 16 15 11 10 11 12 13 13 12 13 13 13 12 12 10 7 6 6 6 5 5 5 7 9 12 14 15 15 13 10 12 15
27 27 26 25 24 23 22 21 21 20 18 17 17 17 16 16 15 15 14 12 11 10 8 10 12 12 13 12 12 13 13 14 13 11 10 10 11 11 10 10 11 13 14 14 13 12 10 8 7 7 5 4 4 5 7 9 12 13 11 8 7 11 13
27 28 27 27 26 24 23 22 20 18 17 17 18 17 16 16 15 14 13 12 11 10 10 11 12 12 11 11 11 12 13 13 12 11 11 11 10 10 9 9 9 10 11 11 11 11 10 11 9 9 8 5 4 5 6 8 9 9 7 6 7 10 12
28 28 27 26 25 23 23 21 19 18 18 19 18 17 17 16 15 14 12 10 10 10 11 12 12 11 9 9 10 12 12 12 12 11 11 11 10 10 9 9 8 8 8 8 8 8 9 11 10 9 10 9 7 7 8 8 5 4 4 4 6 8 11
29 28 26 25 24 23 21 20 18 18 18 19 18 17 17 16 16 13 9 8 8 9 11 12 11 10 9 10 11 11 12 12 12 11 11 10 10 10 9 9 9 8 8 7 7 6 7 9 9 10 13 11 10 12 10 6 2 1 3 1 4 6 12
28 26 24 24 23 22 21 19 18 18 18 18 18 17 17 16 15 11 7 8 8 9 11 11 10 9 10 12 12 12 12 12 12 11 11 10 9 9 9 8 8 8 7 7 6 6 6 7 7 10 13 12 12 13 9 5 2 3 1 1 3 9 14
26 25 25 24 24 22 21 19 18 19 19 19 18 17 17 15 11 7 5 7 8 10 12 11 10 10 11 13 13 14 14 13 12 11 11 10 10 10 9 8 8 8 8 6 5 5 5 6 7 10 13 13 12 12 8 4 2 4 3 2 6 12 16
25 25 25 25 24 22 20 19 20 21 21 20 19 17 15 11 7 5 4 6 9 12 13 12 11 12 13 14 14 14 15 14 13 12 11 11 10 10 9 9 9 8 8 6 5 5 6 6 7 9 11 11 10 11 8 5 3 3 4 5 8 12 16
25 25 24 23 22 21 21 22 23 23 22 20 19 16 12 8 7 7 7 9 12 14 14 13 13 13 13 14 15 15 15 14 14 13 12 11 11 10 10 10 9 8 8 7 5 5 7 8 8 8 8 7 7 10 10 6 3 3 4 6 9 12 15
26 25 23 22 21 21 23 25 25 24 22 21 18 13 10 8 8 8 10 13 14 15 14 13 13 13 14 15 15 15 15 14 14 13 13 12 12 11 11 11 10 9 8 8 8 8 8 9 9 9 8 7 6 7 8 7 4 3 5 7 9 12 14
27 25 23 22 22 22 25 27 25 24 22 20 16 12 9 7 8 9 12 15 15 14 13 12 13 13 14 15 16 15 15 15 13 13 13 12 12 12 12 11 10 10 10 10 10 10 10 9 8 8 8 7 6 6 6 6 6 5 6 7 8 11 13
27 25 22 21 22 25 27 26 25 24 22 19 15 12 9 7 8 10 14 15 15 13 12 12 13 15 15 16 16 16 15 15 14 14 13 13 12 12 11 11 10 10 11 12 12 12 10 9 8 8 8 6 6 6 6 6 6 6 6 6 9 12 13
27 24 22 21 23 26 28 27 26 25 21 18 15 12 9 8 9 11 14 15 14 13 12 13 14 16 16 17 17 17 16 15 15 14 14 13 13 12 11 10 10 10 11 12 12 11 10 9 8 8 8 6 5 5 4 5 5 6 6 7 9 12 13
26 24 24 24 25 28 29 28 27 24 21 18 15 12 10 9 9 11 14 15 14 14 13 14 16 16 17 18 18 17 16 16 15 14 14 13 13 12 12 11 11 11 10 10 11 11 10 9 8 8 7 6 6 4 2 3 4 5 6 7 10 12 12
27 25 24 26 27 30 30 29 27 24 22 19 15 12 10 10 10 12 14 16 15 15 15 16 17 17 18 18 18 17 17 16 15 14 13 13 12 12 12 12 11 11 10 9 10 10 9 9 9 8 6 5 5 3 2 3 4 5 6 7 9 10 11
28 25 25 28 30 30 30 29 26 24 22 20 16 12 10 10 11 12 14 16 15 15 15 16 17 18 19 18 18 17 17 17 16 15 14 13 12 12 12 12 11 10 9 8 9 9 8 9 9 7 5 4 3 3 3 4 5 6 6 6 7 8 9
28 25 27 30 31 31 29 27 25 24 22 20 16 12 11 10 10 11 14 16 15 15 16 16 17 18 19 19 18 18 17 17 16 15 15 13 13 13 13 12 10 8 7 7 8 8 7 8 8 7 5 3 2 3 4 5 6 7 7 7 7 8 10
28 25 29 31 32 31 29 26 25 23 22 19 14 12 12 11 10 11 14 15 16 16 16 17 18 19 20 20 20 19 19 18 17 16 15 14 14 13 12 10 8 6 6 7 8 7 7 7 7 6 4 2 2 4 5 6 7 7 8 8 8 9 11
27 26 30 33 32 31 28 25 24 23 21 17 13 12 12 11 11 12 15 16 16 16 16 17 19 20 21 21 21 20 20 19 18 17 16 15 14 12 10 8 6 7 8 9 9 9 8 7 6 5 4 2 2 3 5 6 7 8 9 9 10 10 11
26 28 33 34 33 30 28 26 25 23 20 15 13 13 12 11 12 14 16 16 16 16 17 18 20 21 23 23 22 21 21 19 18 17 16 14 11 10 10 8 8 9 10 10 10 9 9 8 6 5 3 1 2 3 4 6 7 8 9 10 10 11 12
26 30 35 34 33 31 28 27 26 24 20 16 14 15 13 12 13 14 17 18 17 17 18 19 21 22 23 23 23 22 21 20 18 17 15 13 11 11 12 11 11 11 11 10 10 10 9 8 7 5 3 1 1 3 4 5 7 9 10 11 11 12 13
28 32 35 35 34 32 29 28 26 24 20 18 17 16 14 13 14 16 18 19 18 18 19 20 21 22 23 24 23 22 21 19 18 17 16 14 13 13 14 14 13 12 11 11 10 10 10 8 7 5 3 1 1 2 4 5 7 9 10 11 11 12 14
29 33 36 37 36 33 30 29 28 25 22 20 18 16 15 15 15 17 19 20 20 20 20 21 22 23 23 24 23 22 20 19 19 18 17 15 13 13 15 15 14 13 12 11 10 10 10 9 8 6 4 2 1 2 3 5 7 8 10 10 11 12 14
30 33 37 38 37 34 32 30 29 25 23 21 18 17 16 16 17 19 21 21 21 21 20 21 23 24 24 23 23 22 21 20 19 18 17 16 14 15 16 15 14 14 13 12 11 11 10 9 8 6 5 3 2 2 3 5 7 9 10 10 11 12 13
30 33 38 39 37 35 32 31 29 25 24 22 20 18 17 17 18 20 22 23 22 22 21 22 23 24 24 23 23 23 22 20 19 18 18 16 15 15 16 15 15 14 14 13 12 11 10 9 7 5 5 4 3 2 3 6 8 9 10 11 11 11 12
29 32 38 39 37 35 33 31 30 28 26 24 21 19 19 19 19 22 24 24 23 23 22 23 24 24 24 24 23 23 22 20 20 19 18 17 16 16 15 15 15 15 14 13 12 11 11 10 8 6 6 5 4 4 4 6 8 10 10 11 11 11 13
30 34 39 39 38 35 33 33 32 29 26 24 22 20 20 20 21 23 25 25 24 24 23 24 25 25 24 24 24 23 22 21 20 19 18 18 18 17 16 16 16 16 15 13 12 12 11 10 8 7 6 5 4 4 5 6 8 10 11 11 10 10 12
31 36 39 39 38 36 34 33 31 29 27 25 23 22 22 22 23 25 26 26 25 25 24 24 25 25 25 25 24 22 22 21 21 20 19 18 18 17 16 16 17 16 15 13 12 11 10 9 8 7 6 5 4 5 6 7 9 10 10 9 8 9 11
31 37 39 39 38 37 34 32 31 30 28 25 23 22 22 23 25 27 27 27 26 25 24 23 24 25 26 25 24 23 22 22 22 21 21 20 19 19 17 16 16 15 13 12 12 11 10 9 9 8 7 7 7 6 6 7 8 8 8 6 5 7 9
31 36 39 39 37 35 33 32 31 30 27 24 22 21 22 24 27 28 27 27 26 25 24 22 22 24 24 24 24 23 23 23 23 23 22 21 22 21 19 16 15 15 13 11 11 11 10 10 10 9 8 8 8 7 5 6 7 7 7 5 4 6 8
31 35 37 36 34 32 31 31 32 30 27 24 22 21 22 25 28 29 28 27 26 25 24 23 22 22 22 24 25 25 25 25 24 24 22 21 21 20 19 17 15 15 14 11 9 10 11 10 10 10 9 8 7 6 5 6 6 7 6 4 4 7 9
31 32 32 31 31 30 30 32 33 31 26 24 22 22 22 25 28 29 29 28 27 26 26 24 22 21 22 24 27 28 26 26 24 22 20 17 16 17 18 16 15 14 14 12 10 10 11 11 11 10 9 8 6 6 6 6 5 6 5 4 5 7 8
31 30 29 30 30 30 30 31 31 29 26 25 25 25 25 26 28 29 29 28 28 28 27 26 24 23 23 25 29 30 28 26 25 22 18 15 14 14 15 15 13 11 11 12 12 12 11 11 11 10 9 8 7 7 6 6 5 4 5 5 6 6 8
31 30 29 30 31 30 30 30 29 27 27 27 28 27 27 28 29 29 29 29 29 28 27 26 24 24 24 26 29 30 28 27 25 23 20 18 16 16 16 15 12 9 8 10 11 12 11 11 11 10 10 9 8 7 6 6 5 3 5 6 6 6 7
32 31 30 29 29 29 30 30 29 28 28 28 28 28 28 28 29 29 29 29 28 27 26 23 21 22 23 25 28 29 29 28 26 24 23 21 20 19 18 16 13 9 7 9 9 10 10 10 10 10 10 9 9 7 6 4 4 3 5 7 6 5 6

ECMWFFLT1_850_spd_138.txt.gz
Wind_Speed
33 30 27 26 26 24 23 22 22 21 21 20 20 18 17 16 16 17 17 17 16 15 14 14 13 13 13 12 13 14 16 17 17 17 16 15 16 19 19 19 18 16 14 12 10 10 11 13 12 9 9 9 9 9 10 11 12 11 11 11 12 12 13
32 30 28 28 27 25 24 23 23 23 22 21 20 18 17 17 17 17 17 17 16 14 13 13 13 12 12 12 13 14 15 16 15 15 14 13 14 17 19 20 18 17 16 14 13 12 11 11 12 11 11 10 9 9 10 10 10 8 8 9 9 11 11
32 31 29 28 27 26 25 24 25 24 24 22 20 19 18 18 17 17 16 16 15 13 13 13 12 12 12 12 13 14 15 16 15 15 13 12 13 16 18 19 18 18 17 16 16 14 11 10 10 12 12 10 11 10 10 9 8 7 6 7 7 9 10
33 32 31 29 28 28 26 26 26 25 24 23 21 20 19 19 18 17 17 16 14 14 13 12 12 12 13 13 14 15 15 15 15 14 14 14 14 14 16 16 16 16 15 16 15 13 12 11 10 13 13 12 12 11 10 9 7 6 5 4 5 7 8
32 32 31 30 29 29 28 27 27 26 25 23 22 21 20 20 19 18 17 16 15 14 13 13 13 13 13 14 15 15 15 14 14 14 14 15 14 13 14 15 14 13 13 13 12 11 11 10 9 12 16 16 14 13 11 8 7 5 2 2 5 7 6
32 31 31 30 30 29 28 28 27 26 24 24 23 22 22 21 20 20 18 16 14 13 13 13 13 13 14 14 14 14 13 13 13 13 14 14 13 13 13 13 12 12 12 12 12 11 11 10 9 11 16 17 16 15 12 7 5 4 1 2 4 5 6
32 32 31 30 30 29 28 27 26 24 23 22 22 22 22 21 21 20 18 15 13 12 13 13 13 13 14 14 13 12 11 11 12 13 13 13 12 12 12 12 11 11 10 10 11 11 11 12 11 11 15 18 17 15 12 9 6 5 3 2 4 4 6
32 31 31 30 29 28 26 25 24 23 21 21 22 22 22 21 21 19 16 12 12 11 12 12 12 13 13 13 11 10 10 11 12 12 12 12 12 11 11 10 10 9 9 9 9 10 11 13 13 12 14 17 18 15 12 8 6 5 3 2 3 2 6
32 31 30 29 28 27 24 23 22 21 20 20 22 22 21 20 20 17 13 11 12 10 9 10 12 12 12 11 10 9 10 11 12 12 12 11 11 10 10 9 9 9 9 9 9 9 11 13 14 14 14 14 14 14 12 8 5 3 3 3 2 3 7
33 32 30 28 27 26 23 21 20 19 20 21 21 21 20 20 18 14 11 12 12 10 9 10 12 12 12 10 9 10 11 13 13 12 11 11 11 10 10 9 9 8 9 9 9 9 10 12 14 16 15 13 12 12 13 10 6 4 3 4 2 4 7
33 31 29 27 26 26 24 21 19 19 21 22 21 21 20 19 16 13 12 13 13 11 10 11 13 12 12 11 11 12 13 14 14 13 12 11 11 10 10 10 10 9 9 9 8 8 9 10 12 14 15 14 13 13 13 11 7 4 3 3 1 4 6
32 30 28 26 26 25 24 22 21 21 23 23 22 21 19 17 14 13 13 12 12 11 11 12 13 13 12 12 12 14 15 15 14 13 13 11 11 11 11 11 10 10 10 9 8 8 8 8 8 10 13 14 14 13 13 11 7 5 4 3 2 4 5
31 29 27 26 26 25 24 23 22 24 24 23 22 20 17 15 14 14 13 11 11 12 13 13 14 13 13 13 14 15 15 15 14 13 13 12 12 12 12 12 11 11 10 10 9 9 8 8 8 9 11 11 9 9 9 9 7 6 4 3 2 3 5
31 29 27 26 26 24 23 23 24 26 25 23 22 20 17 15 15 13 13 12 13 13 14 14 15 14 14 15 15 16 15 15 14 14 14 13 13 13 12 12 12 11 11 10 10 9 8 7 7 8 9 9 8 7 7 8 7 6 5 3 0 3 5
31 29 28 27 26 24 23 23 25 26 25 23 21 19 17 16 15 13 12 13 14 14 15 15 15 15 15 16 16 16 16 16 15 14 14 13 13 13 12 12 12 11 11 11 10 8 7 7 7 8 9 8 7 6 5 6 7 7 6 3 0 2 4
31 29 28 27 26 24 23 24 26 25 24 23 21 18 17 16 15 12 12 13 14 15 16 16 15 15 16 16 16 17 17 17 16 15 14 14 14 14 13 12 12 11 11 11 10 9 8 7 8 8 7 6 5 5 4 4 5 6 5 2 1 3 5
32 30 29 28 26 23 23 25 26 25 25 24 21 19 18 17 14 12 12 13 14 16 17 16 16 16 16 16 16 18 18 17 16 15 14 14 14 14 14 13 12 12 11 10 10 9 7 7 8 8 6 5 3 2 1 1 1 1 1 1 2 4 5
32 31 30 28 25 23 24 26 27 26 26 24 22 20 18 17 14 13 12 12 14 16 17 16 16 16 16 17 17 18 18 18 16 15 15 14 15 14 14 13 13 11 10 9 9 8 7 7 7 7 6 5 3 2 2 3 2 2 2 3 3 4 5
33 31 30 28 26 24 25 27 28 27 26 24 22 21 18 16 14 12 11 12 14 16 16 16 16 17 17 18 19 19 19 18 17 16 16 15 15 14 14 12 10 9 9 9 7 6 7 7 8 8 7 5 3 2 3 2 2 3 3 4 4 4 5
33 31 30 28 26 25 26 27 29 28 26 25 23 21 19 16 13 11 11 12 14 15 16 16 17 17 18 19 20 20 19 19 18 17 17 15 14 14 12 10 9 9 10 9 8 8 8 8 9 9 7 5 3 2 2 2 2 2 3 3 4 5 7
33 32 30 28 25 24 26 28 29 28 27 25 23 21 19 16 13 11 11 13 14 15 16 16 17 18 19 20 20 20 19 19 19 18 16 15 14 13 12 11 11 10 10 9 9 10 10 10 10 9 7 5 3 2 2 1 1 2 2 3 4 6 8
33 31 30 28 24 24 28 30 30 29 27 25 23 21 19 16 13 12 12 13 15 16 16 17 18 19 19 20 20 20 20 20 19 18 16 15 14 13 12 12 12 11 11 11 11 12 12 11 10 9 7 4 3 2 2 1 1 1 3 4 5 7 8
33 31 30 28 24 26 30 32 31 29 27 25 23 21 18 15 14 13 13 14 15 17 18 18 18 19 19 19 20 20 20 20 19 18 16 15 14 14 13 13 13 13 12 12 12 13 13 12 10 9 7 5 3 2 1 1 0 2 3 5 7 8 9
32 31 30 27 25 29 32 33 31 29 27 25 23 21 18 15 15 14 13 13 15 17 18 18 18 19 19 20 20 20 20 20 19 18 16 15 14 14 14 15 14 14 13 12 12 13 13 12 11 9 8 6 4 3 2 1 0 3 4 6 8 8 9
31 31 30 27 27 33 35 33 32 29 26 25 23 20 17 16 16 15 14 14 15 17 18 18 18 19 20 20 20 20 20 20 19 18 17 15 15 14 14 15 15 14 13 13 13 13 13 12 11 10 8 7 5 3 3 2 0 3 4 6 8 7 8
31 32 31 28 30 36 36 34 32 29 27 25 23 20 17 17 17 16 15 15 15 17 17 17 18 19 19 19 20 20 20 20 19 18 17 16 15 15 14 15 16 15 15 15 14 14 14 12 11 10 8 7 5 4 4 2 0 3 4 6 7 6 7
32 33 30 28 34 38 36 34 32 29 27 25 24 21 19 19 18 17 16 15 15 17 17 17 18 18 19 19 19 20 20 20 20 19 17 16 16 16 15 15 15 15 15 16 15 14 13 12 11 10 9 8 7 6 5 3 1 3 5 6 6 5 6
33 31 29 30 36 38 36 34 32 30 28 25 24 22 20 19 18 17 16 15 16 17 17 18 18 18 18 18 19 20 20 21 20 19 18 17 17 16 15 15 15 15 15 15 14 14 14 12 11 11 10 9 8 7 5 2 2 3 5 6 4 4 6
32 30 28 32 38 37 36 36 34 32 29 26 24 23 21 21 20 19 17 16 17 18 18 18 19 18 18 18 19 19 20 21 21 20 19 19 17 16 16 16 16 17 16 15 14 14 14 14 13 12 11 10 8 7 3 2 3 4 5 4 3 3 6
32 30 29 34 39 38 37 37 36 33 30 27 26 25 24 23 22 20 18 17 18 19 19 19 19 19 19 19 19 20 20 20 20 20 20 20 18 17 17 17 17 17 16 16 15 15 15 14 14 13 12 10 8 5 3 3 4 5 5 4 2 3 5
32 31 29 34 39 40 39 39 37 34 31 28 27 26 26 25 23 21 19 18 18 19 20 20 20 20 19 20 20 20 20 20 20 20 21 21 19 18 18 17 18 18 17 16 16 16 16 15 15 14 12 9 7 5 4 4 5 6 6 5 2 1 3
31 30 29 33 38 40 41 41 38 35 31 28 28 28 27 25 24 22 20 19 19 20 21 20 20 20 20 21 21 21 20 20 21 22 23 23 21 20 19 19 18 17 17 16 16 16 16 15 15 13 11 8 6 4 4 5 6 6 6 6 4 3 2
30 29 28 31 36 40 41 41 39 35 31 29 30 29 27 24 23 22 21 21 21 22 22 21 20 20 20 21 21 21 21 22 22 23 24 24 23 21 21 20 18 16 15 15 14 14 14 14 14 12 10 8 6 5 5 6 7 7 7 6 4 4 2
28 28 27 28 34 39 41 41 39 35 32 31 31 28 26 24 22 22 22 22 23 23 23 21 19 20 20 20 21 21 22 23 23 23 24 25 24 23 22 20 18 16 15 13 12 12 12 13 13 12 10 8 6 6 7 7 7 7 7 6 4 4 3
28 27 26 27 33 38 40 40 38 34 32 32 30 27 25 23 23 23 23 24 24 24 23 22 20 20 20 20 21 21 22 22 23 23 25 26 25 24 22 20 19 17 15 13 12 13 13 13 13 12 10 9 8 8 8 7 7 8 7 6 5 5 4
25 24 24 26 32 37 39 38 36 34 32 31 29 27 26 25 24 24 24 25 25 24 23 23 22 22 21 21 21 21 21 22 23 25 27 27 25 24 22 20 19 17 16 14 13 13 14 13 13 12 11 10 10 9 8 8 8 8 7 6 5 5 5
23 23 23 26 31 36 37 36 35 34 32 31 30 28 27 26 26 26 25 25 25 25 24 23 23 22 22 21 21 22 23 24 25 26 27 27 25 23 21 20 18 17 16 14 12 12 13 13 13 13 12 12 11 10 9 8 8 7 7 6 4 4 4

ECMWFFLT1_850_spd_141.txt.gz
Wind_Speed
34 32 30 28 27 25 25 25 24 24 22 21 19 19 18 17 16 16 15 14 14 13 13 13 14 15 15 15 15 16 17 18 18 18 19 20 20 20 20 20 20 17 14 11 10 9 10 14 14 12 10 10 10 10 9 6 5 4 5 6 9 11 12
33 31 29 29 27 26 25 25 24 23 22 22 21 20 19 17 16 16 15 14 14 13 13 14 14 14 15 15 15 16 17 17 17 18 19 19 18 16 16 17 18 18 17 15 12 10 11 13 15 14 13 12 11 10 7 5 4 2 3 5 7 10 11
33 32 31 29 28 27 26 25 24 24 23 22 22 21 19 17 17 16 15 14 14 14 13 14 14 14 14 14 14 15 16 16 16 16 16 16 15 14 13 15 17 17 17 16 15 14 13 11 12 14 15 13 12 10 7 6 5 2 1 4 6 8 10
34 34 32 31 29 28 27 26 25 24 23 22 22 21 19 18 17 16 15 15 15 14 14 14 14 14 13 13 13 14 15 15 15 14 14 14 14 13 13 13 15 16 15 15 15 15 15 13 12 15 17 14 12 10 9 9 6 3 0 3 6 8 9
36 35 33 31 30 29 28 27 26 25 23 23 22 21 21 20 18 16 15 16 15 14 14 14 13 13 13 13 14 14 14 14 14 13 13 13 13 12 11 12 12 13 13 13 12 13 14 13 12 16 20 16 14 13 12 10 7 3 0 3 6 8 9
37 36 33 31 30 29 29 28 27 26 24 23 22 22 22 21 19 17 16 16 15 13 14 14 13 14 14 13 14 14 14 13 12 12 12 12 11 11 10 10 10 11 11 10 11 11 12 12 13 16 20 17 14 15 14 10 7 4 0 3 6 8 10
37 36 33 32 30 30 29 28 27 26 25 23 21 21 22 21 19 18 17 17 15 14 14 15 15 14 13 13 13 14 13 12 11 11 11 11 10 9 9 9 9 9 9 9 10 11 12 14 15 16 19 19 15 14 13 10 7 5 2 2 5 7 9
36 35 33 31 30 30 29 28 27 26 24 21 20 21 22 21 20 19 18 17 15 15 15 15 15 13 12 13 13 13 12 11 11 11 10 9 9 9 9 9 9 9 9 9 9 10 12 13 14 16 17 17 17 16 13 10 8 6 4 4 6 8 10
35 34 32 31 30 30 29 28 26 25 22 20 19 21 21 20 20 20 19 16 15 15 15 15 14 11 12 13 13 12 12 11 11 9 8 8 8 8 9 9 8 8 8 8 8 9 11 12 13 14 15 14 14 16 16 12 9 7 6 5 7 8 9
35 33 32 31 30 29 29 28 26 24 22 20 19 20 20 20 20 20 18 16 15 15 14 14 12 11 12 12 12 11 11 11 9 8 8 8 9 9 9 8 8 7 7 8 8 8 9 11 12 13 13 12 11 12 15 15 11 8 7 7 7 8 9
35 32 30 30 30 29 29 28 26 23 21 21 20 19 20 20 20 19 18 16 15 15 14 13 11 11 11 12 12 11 10 9 8 8 8 9 10 10 9 8 8 8 7 8 8 8 9 11 12 13 13 13 11 10 11 13 12 9 8 8 8 8 9
35 32 30 30 30 29 29 28 26 22 20 20 20 20 20 20 20 19 18 16 15 16 15 14 12 11 12 12 11 10 9 8 7 8 10 11 10 9 9 9 8 8 8 8 8 8 9 11 13 15 15 15 15 13 10 10 10 9 8 8 8 8 8
34 32 31 30 30 30 28 27 25 22 20 20 20 20 20 20 19 19 17 16 16 16 15 14 13 12 12 12 10 9 9 8 9 10 11 11 11 10 9 9 9 9 8 8 8 8 9 11 13 16 17 17 16 15 13 11 10 10 9 9 9 9 8
35 33 31 31 31 30 29 27 24 22 21 20 20 21 21 19 19 18 17 16 16 15 15 14 14 13 13 12 10 10 10 10 11 12 12 12 11 11 11 10 9 9 9 9 8 8 8 9 10 13 16 16 16 14 12 11 11 10 10 10 9 8 6
35 33 32 31 31 31 29 27 24 22 21 20 20 21 20 19 18 17 17 16 16 16 16 14 14 14 13 12 11 12 12 12 13 13 13 12 12 12 11 10 10 10 9 9 8 8 7 7 8 10 12 13 12 10 8 7 8 9 9 9 8 6 5
35 34 32 32 32 31 29 27 24 21 20 20 21 21 20 18 18 17 17 16 16 15 15 14 14 13 13 12 13 13 13 13 13 13 13 13 12 11 10 10 10 10 9 8 8 7 7 8 8 9 10 10 8 6 5 4 5 6 7 7 6 5 4
35 34 33 33 32 30 29 26 23 20 19 20 22 21 19 19 18 17 17 17 15 14 14 14 14 13 13 13 13 13 13 13 14 14 13 12 11 10 10 10 11 10 10 9 8 8 8 8 9 9 9 8 7 5 4 3 3 3 4 4 3 3 4
35 33 33 33 31 29 27 25 23 21 20 21 23 21 20 20 19 18 18 17 14 13 13 13 14 14 14 15 14 14 14 14 15 14 13 11 10 10 10 10 11 11 11 9 9 8 7 8 10 11 9 9 8 7 6 5 4 3 3 3 2 3 4
34 33 33 32 31 29 27 25 24 22 21 22 23 22 21 20 19 19 19 16 13 12 12 13 14 15 15 16 15 15 15 15 15 14 13 12 11 11 11 12 12 12 11 10 9 8 8 8 11 11 10 10 9 7 6 5 4 3 3 2 2 2 3
34 33 32 32 30 28 27 26 25 22 20 23 23 22 22 20 19 19 17 15 13 13 13 13 15 16 16 17 16 16 16 16 16 15 14 13 13 13 13 13 13 13 11 10 10 9 9 10 12 12 10 10 8 7 6 5 4 4 3 2 2 1 3
33 32 32 31 30 28 27 27 24 20 20 23 24 22 22 20 19 18 16 14 14 14 14 14 16 17 17 17 17 16 16 16 16 16 15 15 15 15 15 15 14 13 11 11 10 9 10 11 13 13 12 10 8 6 6 5 4 4 3 2 1 1 3
34 32 31 32 30 27 27 27 23 20 21 23 24 23 22 21 19 17 15 14 15 15 15 15 16 17 17 17 17 17 17 17 17 17 17 16 16 16 16 16 15 14 12 11 11 11 12 12 12 12 11 10 8 7 6 5 5 4 3 2 1 2 3
35 32 31 31 29 26 27 27 24 20 22 24 24 24 23 21 20 17 15 16 16 16 15 15 15 16 16 16 16 17 17 17 17 18 18 18 17 17 17 16 15 14 13 13 13 13 13 14 13 12 11 9 8 7 6 6 5 4 4 2 1 2 2
37 35 32 30 28 27 29 28 24 21 23 25 26 25 23 22 20 18 17 17 17 15 14 14 15 16 16 16 16 17 17 18 18 18 18 18 18 17 17 16 16 15 14 14 14 14 14 14 14 13 12 10 8 6 6 6 6 5 4 2 1 2 2
37 35 32 30 29 30 31 28 23 22 26 28 28 26 24 22 20 19 18 18 16 14 13 14 15 16 16 16 16 17 18 18 18 18 18 18 18 17 17 16 16 15 15 14 14 15 15 15 14 13 12 10 8 7 6 6 6 5 4 3 2 2 1
34 34 33 30 30 32 31 27 23 24 28 29 28 26 24 22 20 19 18 17 15 13 12 13 15 16 16 16 16 17 18 19 18 18 18 18 18 17 16 15 15 15 15 15 15 15 15 16 15 14 13 11 9 7 7 6 6 5 4 3 3 1 1
34 35 34 32 32 32 29 26 24 25 29 30 29 27 24 22 20 18 17 15 13 11 11 12 14 14 15 15 16 17 18 18 18 18 18 18 18 16 15 14 15 15 16 16 15 15 16 16 15 14 13 11 10 8 7 6 6 6 4 3 3 1 1
36 39 37 33 31 30 28 26 25 27 31 31 29 26 24 22 20 17 15 13 12 10 9 10 12 13 14 15 16 18 19 19 19 19 18 18 17 15 14 13 13 13 15 16 15 15 15 15 14 14 13 12 11 9 7 7 7 6 5 4 3 2 2
40 43 39 33 29 28 29 28 26 28 32 30 28 26 24 22 19 16 14 13 11 8 7 8 11 12 14 15 16 18 18 19 20 20 19 19 17 16 15 14 13 13 15 16 16 15 15 15 15 15 14 13 12 10 8 7 7 7 5 4 3 3 3
41 42 37 31 28 28 29 28 27 30 32 30 29 27 24 21 19 15 13 13 11 8 6 8 10 12 14 15 16 17 18 20 20 20 20 19 18 18 18 17 16 16 17 17 16 16 16 16 16 16 15 15 13 11 8 8 8 7 6 5 4 4 5
40 41 37 31 28 28 28 27 28 32 33 30 29 26 22 20 18 16 14 14 13 9 7 8 10 12 14 15 16 17 18 19 20 20 21 20 20 20 19 17 16 17 17 17 17 17 18 18 18 18 17 16 15 12 10 9 9 8 7 6 5 5 5
39 40 36 29 27 27 27 27 29 33 33 29 28 26 22 20 18 16 15 15 14 12 9 10 11 12 14 16 17 17 18 19 20 21 21 21 21 21 20 18 18 17 17 17 18 19 19 19 19 19 18 17 16 13 12 11 10 9 8 7 6 6 7
40 38 31 26 24 25 25 27 30 34 33 30 28 27 24 20 17 17 17 17 16 14 12 12 13 13 14 16 18 18 18 20 21 21 20 20 21 22 20 19 19 17 17 18 18 19 19 20 19 19 19 18 16 14 13 12 11 10 8 8 7 7 9
37 32 26 24 23 21 22 26 31 34 32 30 29 28 25 20 17 19 20 19 18 16 14 14 15 15 16 17 19 19 19 19 20 20 19 20 20 21 21 21 20 19 18 18 17 18 19 19 19 20 19 18 15 14 14 13 11 10 9 9 8 9 10
30 28 25 22 20 19 21 26 31 33 32 31 30 30 27 21 20 22 22 21 19 17 14 14 16 18 18 18 18 19 19 18 18 18 19 21 21 20 21 21 20 19 18 17 16 17 18 18 19 19 18 17 15 15 15 13 12 11 11 10 10 10 11
32 30 26 21 20 19 20 24 30 34 33 32 32 32 29 24 22 24 24 22 20 18 16 16 17 18 19 18 18 19 19 18 18 18 19 20 20 20 20 21 20 20 19 17 16 15 16 18 19 17 16 16 16 15 15 14 13 13 12 11 11 10 11
31 29 25 22 21 21 20 23 30 34 34 34 34 33 29 25 24 25 24 23 21 19 19 19 19 19 20 20 19 19 19 19 19 19 19 19 19 19 20 21 20 19 18 18 17 16 16 18 19 17 16 16 16 16 16 16 15 14 13 13 12 11 10